Weather Roundup
Issued by NWS Chicago, IL

Home | Current Version | Previous Version | Graphics & Text | Print | Product List | Glossary On
Versions: 1 2 3 4 5 6 7 8 9 10 11 12 13 14 15 16 17 18 19 20 21 22 23 24 25 26 27 28 29 30 31 32 33 34 35 36 37 38 39 40 41 42 43 44 45 46 47 48 49 50
587
NZUS59 KLOT 100608
HRRLOT

CHICAGO AREA WEATHER ROUNDUP
NATIONAL WEATHER SERVICE CHICAGO/ROMEOVILLE IL
1200 AM CST WED FEB 10 2016

NOTE: "FAIR" INDICATES FEW OR NO CLOUDS BELOW 12,000 FEET WITH NO
SIGNIFICANT WEATHER AND/OR OBSTRUCTIONS TO VISIBILITY.

* THESE STATIONS ARE NOT UNDER NWS QUALITY CONTROL. THEY ALSO MAY NOT
  REPORT WEATHER SUCH AS PRECIPITATION OR FOG.

ILZ005-006-012>014-019>023-100700-
NORTHEAST ILLINOIS

CITY           SKY/WX    TMP DP  RH WIND       PRES   REMARKS
OHARE          CLOUDY    15   5  64 NW16      29.94S WCI  -1
6HR MIN TEMP:  13; 6HR MAX TEMP:  16; 6HR PCP: TRACE;

MIDWAY         FLURRIES  16   5  62 NW17      29.94F WCI   0
6HR MIN TEMP:  15; 6HR MAX TEMP:  18; 6HR PCP: TRACE;

AURORA         PTCLDY    13   4  67 NW13      29.97S WCI  -2
6HR MIN TEMP:  13; 6HR MAX TEMP:  16; 6HR PCP: TRACE;

LANSING*       CLOUDY    15   7  71 NW8       29.94F WCI   4
WAUKEGAN       LGT SNOW  13   6  74 NW9       29.92S WCI   1
6HR MIN TEMP:  13; 6HR MAX TEMP:  15; 6HR PCP: TRACE;

DUPAGE AIRPORT CLOUDY    13   2  61 NW12      29.94F WCI  -1
6HR MIN TEMP:  13; 6HR MAX TEMP:  16; 6HR PCP: TRACE;

WHEELING       CLOUDY    14   5  67 NW15G24   29.95S WCI  -1
6HR MIN TEMP:  14; 6HR MAX TEMP:  16; 6HR PCP: TRACE;

KANKAKEE*      CLOUDY    15   6  69 W10G16    29.97F WCI   2
MORRIS*        CLOUDY    14   6  72 NW13      29.95S WCI   0
LEWIS AIRPORT* CLOUDY    15   5  65 NW13G18   29.96S WCI   1
$$

WIZ051-052-058>065-066-070>072-100700-
SOUTHEAST WISCONSIN

CITY           SKY/WX    TMP DP  RH WIND       PRES   REMARKS
MILWAUKEE      MOCLDY    14   5  67 NW12      29.93S WCI   0
6HR MIN TEMP:  14; 6HR MAX TEMP:  17; 6HR PCP: TRACE;

KENOSHA*       CLOUDY    14   4  64 NW13G23   29.92F WCI   0
RACINE*        CLOUDY    14   5  67 NW9       29.94S WCI   2
BURLINGTON     CLEAR     10   1  69 NW12      29.94S WCI  -5
WAUKESHA       PTCLDY    10   3  72 NW15      29.94R WCI  -6
$$

INZ001>003-010>013-019-020-100700-
NORTHWEST INDIANA

CITY           SKY/WX    TMP DP  RH WIND       PRES   REMARKS
GARY*          CLOUDY    17   7  63 W14G22    29.95S WCI   3
6HR MIN TEMP:  17; 6HR MAX TEMP:  19;

MICHIGAN CITY* NOT AVBL
RENSSELAER*    NOT AVBL
VALPARAISO     LGT SNOW  15  10  80 W15       29.90F WCI   0
$$

LMZ740>746-100700-
SOUTHERN LAKE MICHIGAN

STATION/POSITION TIME  SKY/WX   TEMP WIND        PRES    VSBY
                                AIR  DIR/SP/G
                 (UTC)          (F)  (DEG/KT/KT) (MB)    (MI)
HARRISON CRIB    0520            16  300/ 21/ 25   N/A
BURNHAM HARBOR   0600            17  280/  9/ 17   N/A
CALUMET HARBOR   0500            15  290/ 11/ 16 1013.4R
BURNS HARBOR     0523            19  300/ 21     1013.5R
MICHIGAN CITY    0500            20  280/ 24/ 27   N/A
$$

ABBREVIATIONS USED IN REMARKS
   TC - TEMPERATURE IN CELSIUS
  WCI - WIND CHILL INDEX
   HX - HEAT INDEX
  VSB - VISIBILITY
$$




USA.gov is the U.S. government's official web portal to all federal, state and local government web resources and services.